Location: Goettingen
(51.5300°N, 9.9433°E)
Time: 05:53:17
(UTC+01:00)

ISS - Pass Details

Date: 09 December 2019
Orbit: 411 x 421 km, 51.6° (Epoch: 15 December)

Event Time Altitude Azimuth Distance (km) Brightness Sun altitude
Rises 17:35:15 0° 284° (WNW) 2,358 1.0 -12.2°
Reaches altitude 10° 17:37:29 10° 274° (W) 1,495 0.1 -12.5°
Maximum altitude 17:40:30 32° 209° (SSW) 749 -2.0 -12.9°
Drops below altitude 10° 17:43:31 10° 145° (SE) 1,494 -1.1 -13.4°
Enters shadow 17:45:10 - 137° (SE) 2,131 -0.4 -13.6°
